Regional Weather Roundup
Issued by NWS Cleveland, OH

Home | Current Version | Previous Version | Graphics & Text | Print | Product List | Glossary On
Versions: 1 2 3 4 5 6 7 8 9 10 11 12 13 14 15 16 17 18 19 20 21 22 23 24 25 26 27 28 29 30 31 32 33 34 35 36 37 38 39 40 41 42 43 44 45 46 47 48 49 50
844
ASUS41 KCLE 131600
RWRCLE
OHIO REGIONAL WEATHER ROUNDUP
NATIONAL WEATHER SERVICE WILMINGTON, OH
1100 AM EST SAT FEB 13 2016

NOTE: "FAIR" INDICATES FEW OR NO CLOUDS BELOW 12,000 FEET WITH NO
SIGNIFICANT WEATHER AND/OR OBSTRUCTIONS TO VISIBILITY.

OHZ001>008-015>018-024>027-034-035-043-044-131700-
   NORTHWEST OHIO

CITY           SKY/WX    TMP DP  RH WIND       PRES   REMARKS
DEFIANCE       CLOUDY    12   3  67 W8        30.50R WCI   0
FINDLAY        CLOUDY    14   0  53 W17       30.47R WCI  -3
TOLEDO EXPRESS CLOUDY    11  -1  58 W14       30.47R WCI  -5
TOLEDO EXEC    CLOUDY    12  -1  56 W14G20    30.48S WCI  -3
LIMA           PTSUNNY   11  -1  58 NW12      30.47S WCI  -3
$$

OHZ009>014-019>023-028>033-038-089-131700-
   NORTHEAST OHIO

CITY           SKY/WX    TMP DP  RH WIND       PRES   REMARKS
CLE-HOPKINS    CLOUDY    10  -3  55 NW15      30.45R WCI  -7
CLE-LAKEFRONT  CLOUDY    11  -2  56 NW18G28   30.42R WCI  -7
CUY CO. ARPT   CLOUDY    10  -4  52 NW16G25   30.39R WCI  -7
LORAIN-ELYRIA  CLOUDY    10  -3  55 NW15G22   30.43R WCI  -7
ASHTABULA      LGT SNOW   7   0  73 NW14G23   30.35R VSB 1   WCI -10
AKRON-CANTON   PTSUNNY    7  -2  66 W16       30.37R WCI -11
WOOSTER        NOT AVBL
MANSFIELD      FAIR       7  -5  57 NW12      30.41R WCI  -8
YOUNGSTOWN     LGT SNOW   8  -5  55 NW25G31   30.32R BLWGSNOWWCI -13
$$

OHZ042-051>053-060>062-070>072-077>081-131700-
  SOUTHWEST OHIO

CITY           SKY/WX    TMP DP  RH WIND       PRES   REMARKS
CINC-COVINGTON FAIR      15   3  59 NW6       30.54R WCI   6
CINC-LUNKEN    PTSUNNY   15   2  56 NW9       30.59R WCI   3
HAMILTON       FAIR      14  -2  49 N8        30.58R WCI   3
DAYTON         NOT AVBL
WRIGHT-PAT AFB MOSUNNY   11  -7  42 NW8       30.52R WCI   0
DAYTON GENERAL FAIR      11  -7  44 NW9       30.52R WCI  -2
WILMINGTON     FAIR      11  -6  46 NW9       30.50R WCI  -2
$$

OHZ036-037-039>041-045>050-054>059-063>069-073>076-082>088-131700-
  CENTRAL AND SOUTHEAST OHIO

CITY           SKY/WX    TMP DP  RH WIND       PRES   REMARKS
COLUMBUS       FAIR      10  -8  44 NW12      30.49R WCI  -5
OSU AIRPORT    FAIR      10  -4  53 W10       30.48R WCI  -4
BOLTON FIELD   NOT AVBL
RICKENBACK AFB NOT AVBL
NEWARK         FAIR      11  -6  46 NW15      30.47R WCI  -5
MARION         PTSUNNY   10  -5  50 NW10      30.46R WCI  -4
LANCASTER      FAIR      11  -8  42 NW9       30.49S WCI  -2
ZANESVILLE     FAIR      12  -7  42 NW9       30.45S WCI   0
NEW PHILLY     FAIR       8  -4  58 NW13      30.44R WCI  -8
$$




USA.gov is the U.S. government's official web portal to all federal, state and local government web resources and services.